www.pogodaiklimat.ru

Погода и климат >> Архив погоды >> Россия >> Красноярский край >> Тасеево


ПОГОДА в Тасеево

  • Прогноз погоды в Тасеево
  • Монитор погоды в Тасеево

АРХИВ ПОГОДЫ в Тасеево

Время (UTC), дата Ветер
(напр.,м/с)
 
Видим.   Явления Облачность Т
(С)
Тd
(С)
f
(%)
Тe
(С)
Тes
(С)
Комфортность P
(гПа)
Po
(гПа)
Тmin
(С)
Tmax
(С)
R
(мм)
R24
(мм)
S
(см)
03 17.02 З 5
{10}
20 км позёмок 10/0
[Ci sp]
-4.2 -8.6 71 -11 -10 1017.6 996.3 -4.4
06 17.02 З 4 10 км слаб. ливневой снег {метель} 10/6 600 м
[Cb cap Cs]
-3.1 -7.6 71 -9 -8 1016.9 995.6
09 17.02 З 1 20 км {ливн. осадки} 10/4 600 м
[Sc diur, vesp Ci fib]
-3.2 -9.1 64 -5 -5 1015.9 994.6
12 17.02 штиль 0 20 км {ливн. осадки} 8/0
[Ci fib]
-12.1 -13.2 91 -12 -12 1015.7 993.7 -2.7 0.0
15 17.02 штиль 0 20 км 10/0
[Cs]
-13.0 -13.5 96 -13 -13 1014.2 992.1
18 17.02 штиль 0 20 км 10/0
[Ac trans Cs]
-12.5 -13.0 96 -13 -13 1012.6 990.7
21 17.02 штиль 0 20 км 10/0
[Ac As]
-9.3 -9.7 97 -10 -10 1010.8 989.1
00 18.02 Ю 1 20 км 10/0
[Ac As]
-5.5 -10.0 71 -8 -8 1009.6 988.3 -15.2 72
03 18.02 Ю 2 20 км 10/0
[As op Ci sp]
-4.2 -10.5 61 -8 -7 1009.7 988.5
06 18.02 Ю 2 20 км 10/0
[Ac lent Ci sp]
+0.2 -10.6 44 -3 -1 1008.0 987.1
09 18.02 Ю 2 20 км 10/0
[Ci sp]
+1.3 -10.9 40 -1 -1 1006.9 986.1
12 18.02 Ю 2 20 км 10/0
[Cs]
-2.2 -11.0 51 -5 -5 1007.1 986.1 +1.8
15 18.02 З 1 20 км 10/0
[Cs]
-1.2 -9.2 54 -3 -3 1007.3 986.8
18 18.02 З 4
{11}
20 км 10/0
[As op]
+0.7 -5.5 63 -4 -4 1007.6 986.8
21 18.02 З 5
{10}
10 км слаб. снег 10/0 2000 м
[As op]
-0.6 -3.0 84 -7 -7 1008.9 988.0
00 19.02 ЮЗ 4 20 км {снег} 10/0 2000 м
[As op]
-0.4 -3.1 82 -6 -6 1010.0 989.1 -1.5 0.0 71
03 19.02 ЮЗ 3 10 км слаб. снег 10/0
[As op]
-0.6 -1.5 94 -6 -5 1012.1 991.1
06 19.02 З 5 10 км слаб. ливневой снег 10/10 600 м
[Cb cap]
+0.4 -1.3 88 -6 -6 1013.6 992.7
09 19.02 З 5
{10}
20 км в посл. час ливневой дождь 9/8 600 м
[Cb cap Ci sp]
+0.2 -3.3 77 -6 -6 1015.8 994.8
12 19.02 ЮЗ 1 20 км {ливн. осадки} 8/8 600 м
[Cb cap]
-2.8 -5.0 85 -5 -5 1017.9 996.6 +0.9 0.5
15 19.02 Ю 2 20 км 4/0
[Ci fib]
-7.1 -7.7 95 -12 -12 1019.7 998.0
18 19.02 Ю 1 20 км 4/0
[Ci fib]
-6.3 -8.5 84 -9 -9 1020.5 998.9
21 19.02 Ю 1 20 км 8/0
[Ci fib]
-8.5 -10.4 86 -11 -11 1021.5 999.7
00 20.02 ЮВ 1 20 км 8/0
[Ci fib]
-8.8 -11.0 84 -11 -11 1021.9 1000.1 -11.1 71
03 20.02 Ю 1 20 км 6/0
[Ac trans Ci fib]
-4.3 -10.9 60 -6 -5 1022.1 1000.7
06 20.02 Ю 2 20 км 8/0
[Ac trans]
+0.8 -8.4 50 -2 -0 1021.3 1000.2
09 20.02 ЮЗ 3 50 км 9/4 1000 м
[Sc Ac trans Ci fib]
+3.0 -5.3 54 -0 -0 1021.2 1000.3
12 20.02 Ю 2 50 км 9/0
[Ci sp]
+1.0 -6.6 57 -2 -2 1021.8 1000.7 +3.0
15 20.02 Ю 2 20 км 10/0
[Ac trans Ci sp]
-0.7 -6.4 65 -4 -4 1022.0 1000.8
18 20.02 Ю 2 20 км 10/0
[Ac trans Cs]
-1.1 -6.5 67 -5 -5 1021.3 1000.1
21 20.02 Ю 1 20 км 10/0
[Ci fib]
-6.0 -8.6 82 -8 -8 1020.7 999.1
00 21.02 штиль 0 20 км 8/0
[Ci fib]
-9.3 -9.7 97 -10 -10 1020.7 998.8 -10.0 71
03 21.02 штиль 0 20 км 10/0
[Ac cast Ci fib]
-4.5 -7.7 78 -5 -4 1020.2 998.7 -10.3
06 21.02 ЮЗ 1 50 км 10/0
[Ci fib]
+0.9 -7.6 53 -0 +3 1019.2 998.2
09 21.02 штиль 0 50 км 10/0
[Ci sp]
+1.0 -7.9 51 +1 +2 1019.2 998.2
12 21.02 Ю 1 20 км 10/0
[Ac cast Ci sp]
-4.9 -8.5 76 -7 -7 1020.6 999.1 +2.6
15 21.02 штиль 0 20 км 10/0
[Ac As]
-3.5 -6.1 82 -5 -5 1022.0 1000.6
18 21.02 СЗ 4 4000 м слаб. снег 10/0
[As op]
-0.9 -1.3 97 -7 -7 1024.2 1003.0
21 21.02 СЗ 3 20 км {снег} 10/0
[As op]
-1.5 -2.1 96 -7 -7 1026.2 1004.8
00 22.02 З 2 20 км {снег} 10/0 2000 м
[Ac As]
-3.2 -3.7 96 -7 -7 1028.0 1006.5 -5.4 0.2 72
03 22.02 З 6
{11}
20 км слаб. ливневой снег 10/6 600 м
[Cb cap As op]
-2.8 -5.1 84 -10 -10 1029.9 1008.4
06 22.02 З 7-10
{12}
10 км метель {ливн. осадки} 9/9 600 м
[Cb cap Ac trans]
-3.5 -7.2 76 -11 -11 1031.9 1010.3
09 22.02 З 5
{10}
10 км метель 6/6 600 м
[Cb cap]
-3.6 -9.0 66 -10 -10 1033.4 1011.7
12 22.02 ЮЗ 3
{10}
20 км позёмок 9/0
[Ac trans Ci fib]
-6.2 -11.0 69 -12 -12 1034.2 1012.3 -2.1 0.0
15 22.02 ЮЗ 2 20 км 9/0
[Ac und]
-7.6 -12.0 71 -12 -12 1033.5 1011.5
18 22.02 З 5 20 км 9/0
[Ac und]
-5.8 -8.5 81 -13 -13 1033.0 1011.1
21 22.02 З 2 20 км 9/0
[Ac und]
-7.4 -8.6 91 -12 -12 1032.1 1010.1
00 23.02 З 3 10 км слаб. снег 10/0 2000 м
[Ac As]
-6.9 -8.3 90 -13 -13 1031.9 1010.0 -10.0 0.0 72
03 23.02 З 3 10 км слаб. снег 10/0
[As op]
-5.9 -7.8 86 -12 -11 1032.1 1010.3
06 23.02 З 5 4000 м слаб. ливневой снег 10/10 600 м
[Cb cap]
-4.9 -9.3 71 -12 -12 1031.5 1009.8
09 23.02 З 2 50 км {ливн. осадки, метель} 10/8 600 м
[Cb cap Ci sp]
-4.0 -8.3 72 -8 -8 1030.4 1008.8
12 23.02 ЮЗ 3 20 км {ливн. осадки, метель} 10/3 600 м
[Cb cap Ac und Ci sp]
-4.5 -7.5 80 -10 -10 1029.5 1007.9 -3.5 0.0
15 23.02 З 2 20 км 10/0
[Ac As]
-3.8 -10.4 60 -7 -7 1028.9 1007.3
18 23.02 З 2 20 км 8/0
[Ci sp]
-4.1 -10.4 61 -8 -8 1028.1 1006.5
21 23.02 Ю 1 20 км 8/0
[Ci sp]
-8.6 -12.0 76 -11 -11 1027.6 1005.6
00 24.02 Ю 2 20 км 10/0
[Ci sp]
-6.3 -7.5 91 -11 -11 1026.7 1005.0 -10.0 72

 

Местоположение метеостанции Тасеево (Красноярский край, Россия): широта 57.20 долгота 94.55 высота над уровнем моря 165 м.

В архиве по умолчанию представлена погода в Тасеево за последнюю неделю. Архивные данные за месяц целиком и за предыдущие месяцы, начиная с января 2011 года, Вы можете получить, выбрав интересующий диапазон дат из раскрывающегося списка и нажав кнопку "Ввод!".


*Определитесь, кто Вы:
робот инопланетянин человек

Внимание! Время в таблицах - всемирное. Для получения местного времени необходимо прибавить поправку, которая равна 7 ч.

Смотрите также архив погоды в соседних городах и на ближайших метеорологических станциях:

Погода в Дзержинском (Красноярский край, Россия) (56 км)
Погода в Большой Мурте (Красноярский край, Россия) (92 км)
Погода в Казачинском (Красноярский край, Россия) (93 км)
Погода в Абане (Красноярский край, Россия) (106 км)
Погода в Мотыгино (Красноярский край, Россия) (109 км)
Погода в Сухобузимском (Красноярский край, Россия) (110 км)
Погода в Солянке (Красноярский край, Россия) (123 км)
Погода в Железногорске (Красноярский край, Россия) (123 км)
Погода в Канске (Красноярский край, Россия) (129 км)
Погода в Погорельском Бору (Красноярский край, Россия) (134 км)

Пояснения к столбцам:

Ветер - указаны скорость ветра в м/с - средняя за 10 мин, порывы в срок и между сроками (в фигурных скобках) и направление, откуда дует ветер: С - северный, СВ - северо-восточный, В - восточный, ЮВ - юго-восточный, Ю - южный, ЮЗ - юго-западный, З - западный, СЗ - северо-западный.
Видимость - горизонтальная дальность видимости в метрах или километрах. При видимости от 1 до 10 км при отсутствии осадков обычно наблюдается дымка, при ухудшении видимости до 1 км и менее - туман. В сухую погоду видимость может ухудшаться дымом, пылью или мглою.
Явления - указаны атмосферные явления, наблюдавшиеся в срок или в последний час перед сроком; фигурными скобками обозначены явления, наблюдавшиеся между сроками (за 1-3 часа до срока); квадратными скобками обозначены град или гололедные отложения с указанием их диаметра в мм.
Облачность - указаны через наклонную черту общая и нижняя облачность в баллах и высота нижней границы облаков в метрах; квадратными скобками обозначены формы облаков: Ci - перистые, Cs - перисто-слоистые, Cc - перисто-кучевые, Ac - высококучевые, As - высокослоистые, Sc - слоисто-кучевые, Ns - слоисто-дождевые, Cu - кучевые, Cb - кучево-дождевые. Подробнее классификацию облаков см. в Атласе облаков (PDF).
T - Температура воздуха - температура, измеренная на высоте 2 м над землей.
Td - Температура точки росы - температура, при понижении до которой содержащийся в воздухе водяной пар достигнет насыщения.
f - Относительная влажность воздуха - влажноcть воздуха, измеренная на высоте 2 м над землей.
Te - Эффективная температура - температура, которую ощущает одетый по сезону человек в тени. Характеристика душности погоды. При расчете учитывается влияние влажности воздуха и скорости ветра на теплоощущения человека.
Tes - Эффективная температура на солнце - температура, которую ощущает человек, с поправкой на солнечный нагрев. Характеристика знойности погоды. Зависит от высоты солнца над горизонтом, облачности и скорости ветра. Ночью, в пасмурную погоду, а также при ветре 12 м/с и более поправка равна нулю.
P - Атмосферное давление - приведенное к уровню моря атмосферное давление.
Po - Атмосферное давление - измеренное на уровне метеостанции атмосферное давление.
Tmin - Минимальная температура - минимум температуры воздуха на высоте 2 м над землей.
Tmax - Максимальная температура - максимум температуры воздуха на высоте 2 м над землей.
R - Количество осадков - Количество выпавших осадков за период времени, мм. При наведении курсора мыши на число - период времени, за который выпало указанное количество осадков.
R24 - Количество осадков - Количество выпавших осадков за 24 часа, мм.
S - Снежный покров - Высота снежного покрова, см. При наведении курсора мыши на число - состояние снежного покрова и степень покрытия местности в баллах.